User: anonymous   Login
Location: Hopkins Observatory
(42.6965°N, 73.1843°W)
Time: 06:51:26
(UTC-04:00)
Language:

RS-15 - Orbit

View from above orbital plane
View from above orbital plane
View from above satellite
View from above satellite

Ground track
Ground track

The orbit data is extracted from the following two-line orbital elements,

1 23439U 94085A   15241.97616620 -.00000033 +00000-0 +28060-3 0  9993
2 23439 064.8131 202.1307 0156719 359.2297 000.8364 11.27563179851475
Epoch (UTC): 29 August 2015 23:25:40
Eccentricity: 0.0156719
inclination: 64.8131°
perigee height: 1891 km
apogee height: 2154 km
right ascension of ascending node: 202.1307°
argument of perigee: 359.2297°
revolutions per day: 11.27563179
mean anomaly at epoch: 0.8364°
orbit number at epoch: 85147

The dashed part of the orbit path shows where the satellite is in the earth's shadow,  

DLR